Location: Cactus School
(34.5700°N, 118.0931°W)
Time: 19:57:26
(UTC-07:00)

Transit 4A - Pass Details

Date: 13 April 2024
Orbit: 871 x 971 km, 66.8° (Epoch: 21 May)

Event Time Altitude Azimuth Distance (km) Brightness Sun altitude
Rises 22:56:10 0° 347° (NNW) 3,464 11.7 -37.9°
Reaches altitude 10° 22:59:17 10° 3° (N) 2,524 10.6 -38.3°
Enters shadow 23:01:05 16° 19° (NNE) 2,104 10.0 -38.5°
Maximum altitude 23:03:38 21° 52° (NE) 1,851 - -38.8°
Drops below altitude 10° 23:08:00 10° 100° (E) 2,537 - -39.4°
Sets 23:11:07 0° 116° (ESE) 3,486 - -39.7°
